Location: Soapstone Prairie Natural Area
(40.9437°N, 105.0829°W)
Time: 09:48:31
(UTC-06:00)

ISS - Visible Passes

Search period start: 19 September 2014 00:00
Search period end: 29 September 2014 00:00
Orbit: 414 x 417 km, 51.6° (Epoch: 19 September)

Date Brightness Start Highest point End Pass type
(mag) Time Alt. Az. Time Alt. Az. Time Alt. Az.
19 Sep -1.3 05:15:02 17° NW 05:15:48 18° NNW 05:18:12 10° NNE visible
20 Sep -0.7 04:28:11 18° NNE 04:28:11 18° NNE 04:29:32 10° NE visible
20 Sep -0.7 06:02:44 10° NNW 06:04:24 13° N 06:06:05 10° NNE visible
21 Sep -0.8 05:14:10 12° NNW 05:15:16 14° N 05:17:06 10° NNE visible
22 Sep -0.4 04:27:14 14° N 04:27:14 14° N 04:28:15 10° NNE visible
22 Sep -0.6 06:01:58 10° NNW 06:03:52 14° N 06:05:45 10° NE visible
23 Sep -0.6 05:13:09 11° NNW 05:14:39 13° N 05:16:21 10° NNE visible
24 Sep -0.3 04:26:12 12° NNE 04:26:12 12° NNE 04:27:06 10° NNE visible
24 Sep -0.9 06:00:36 10° NNW 06:03:05 19° NNE 06:05:35 10° ENE visible
25 Sep -0.7 05:12:08 12° NNW 05:13:51 16° NNE 05:16:00 10° NE visible
26 Sep -0.3 04:25:13 13° NNE 04:25:13 13° NNE 04:26:24 10° NE visible
26 Sep -1.7 05:58:59 10° NW 06:02:02 32° NNE 06:05:04 10° E visible
27 Sep -1.1 05:11:13 17° NNW 05:12:48 23° NNE 05:15:33 10° ENE visible
28 Sep -0.4 04:24:26 16° NE 04:24:26 16° NE 04:25:54 10° ENE visible
28 Sep -3.1 05:57:19 10° NW 06:00:38 75° NE 06:03:57 10° ESE visible
